This demonstration page uses our WeatherBlox Daily Observations layout. Learn more.

36.19886, -115.1175

Hourly Observations for January 21, 2020

Temp ( °F °C ) Dew Point ( °F °C ) Humidity (%) Winds ( mph kmh ) Pressure ( in mb ) Visibility ( mi km ) Precip ( " mm )
12:53 am 00:53 Cloudy 52 11.1 28 -2.2 40 40 NNW 3 6 30.04 1017 10 16.0934 0 0
1:53 am 01:53 Cloudy 52 11.1 28 -2.2 40 40 N 3 6 30.04 1017 10 16.0934 0 0
2:53 am 02:53 Cloudy 51 10.6 28 -2.2 41 41 Calm 30.04 1017 10 16.0934 0 0
3:53 am 03:53 Cloudy 52 11.1 27 -2.8 38 38 N 5 7 30.04 1017 10 16.0934 0 0
4:53 am 04:53 Mostly Cloudy 51 10.6 26 -3.3 38 38 N 7 11 30.04 1017 10 16.0934 0 0
5:53 am 05:53 Cloudy 50 10 26 -3.3 39 39 NW 3 6 30.05 1018 10 16.0934 0 0
6:53 am 06:53 Mostly Cloudy 51 10.6 26 -3.3 38 38 NNW 7 11 30.08 1019 10 16.0934 0 0
7:53 am 07:53 Mostly Sunny 50 10 27 -2.8 41 41 N 8 13 30.1 1019 10 16.0934 0 0
8:53 am 08:53 Partly Cloudy 56 13.3 32 0 40 40 N 6 9 30.11 1020 10 16.0934 0 0
9:53 am 09:53 Sunny 59 15 33 0.6 38 38 NNW 7 11 30.12 1020 10 16.0934 0 0
10:53 am 10:53 Sunny 59 15 31 -0.6 35 35 Calm 30.12 1020 10 16.0934 0 0
11:53 am 11:53 Sunny 59 15 30 -1.1 33 33 SE 3 6 30.09 1019 10 16.0934 0 0
12:53 pm 12:53 Sunny 59 15 31 -0.6 35 35 ESE 3 6 30.07 1018 10 16.0934 0 0
1:53 pm 13:53 Sunny 61 16.1 30 -1.1 31 31 S 3 6 30.05 1018 10 16.0934 0 0
2:53 pm 14:53 Sunny 60 15.6 30 -1.1 32 32 Calm 30.05 1018 10 16.0934 0 0
3:53 pm 15:53 Sunny 60 15.6 32 0 35 35 ESE 7 11 30.07 1018 10 16.0934 0 0
4:53 pm 16:53 Sunny 58 14.4 35 1.7 42 42 E 8 13 30.08 1019 10 16.0934 0 0
5:53 pm 17:53 Clear 56 13.3 36 2.2 47 47 E 7 11 30.09 1019 10 16.0934 0 0
6:53 pm 18:53 Clear 54 12.2 37 2.8 53 53 NNE 7 11 30.11 1020 10 16.0934 0 0
7:53 pm 19:53 Clear 52 11.1 37 2.8 57 57 NNW 6 9 30.12 1020 10 16.0934 0 0
8:53 pm 20:53 Clear 51 10.6 37 2.8 59 59 N 5 7 30.12 1020 10 16.0934 0 0
9:53 pm 21:53 Clear 49 9.4 36 2.2 61 61 NNW 6 9 30.14 1021 10 16.0934 0 0
10:53 pm 22:53 Clear 47 8.3 35 1.7 63 63 NNW 5 7 30.14 1021 10 16.0934 0 0
11:53 pm 23:53 Clear 46 7.8 33 0.6 61 61 NW 6 9 30.15 1021 10 16.0934 0 0

Powered by AerisWeather